Wind_Speed
1 6 11 14 12 8 7 8 5 14 19 24 26 26 25 27 25 27 27 24 22 21 18 16 14 14 14 13 12 13 12 11 11 11 11 11 11 11 12 12 13 14 15 14 13 12 13 12 12
1 9 12 12 11 8 7 5 3 12 19 23 21 23 24 25 24 23 25 23 21 18 13 11 9 9 10 11 10 10 9 9 9 10 12 12 12 11 12 13 13 14 13 12 13 14 14 13 12
1 7 14 14 9 6 5 5 6 12 16 17 16 19 23 26 25 22 19 18 16 18 16 9 6 5 5 6 4 3 4 6 8 9 11 12 13 13 13 14 14 14 14 12 13 15 15 15 13
1 7 15 13 12 8 5 0 5 9 13 15 14 16 21 27 24 21 19 19 16 20 19 14 6 5 4 3 2 3 5 7 9 10 11 12 13 14 14 15 15 15 14 13 15 17 17 17 13
1 9 13 11 13 7 5 1 3 5 10 10 13 18 27 26 29 27 23 21 21 16 17 17 9 3 3 3 4 4 6 6 8 11 12 12 13 14 15 16 16 16 14 14 15 16 16 14 14
5 10 13 11 12 9 6 3 1 6 9 11 15 20 28 31 31 29 23 23 21 18 18 16 10 6 2 2 2 4 5 6 8 10 12 13 14 16 16 16 16 15 15 14 14 16 18 17 16
6 11 13 15 14 11 8 5 4 5 9 13 13 21 28 34 31 31 18 18 20 19 18 16 11 8 4 2 3 4 5 6 8 11 12 15 16 16 16 16 16 15 14 14 16 17 18 17 17
5 9 9 9 12 13 11 9 1 7 7 10 16 21 25 27 34 25 18 15 20 19 15 13 12 10 8 5 3 2 4 6 8 10 12 13 13 14 14 14 13 12 13 13 15 16 17 18 17
5 6 6 10 9 9 15 11 4 8 10 11 16 19 24 31 26 23 19 13 11 12 13 12 11 10 10 8 6 5 3 3 4 5 7 8 9 10 11 10 10 10 12 12 14 16 18 17 16
7 7 6 9 11 11 9 13 12 8 9 14 17 17 23 22 16 19 22 15 10 9 13 8 8 10 11 9 9 8 6 4 4 5 5 7 7 8 9 10 10 12 13 15 17 17 17 17 19
7 9 4 7 11 15 14 16 17 14 14 13 15 14 12 12 18 23 26 8 12 16 14 12 7 6 9 11 11 10 8 7 5 3 3 5 6 7 8 10 12 13 15 17 18 19 20 21 23
7 2 6 11 11 18 21 23 20 17 16 13 14 15 15 18 19 19 25 13 16 14 17 19 16 7 5 5 6 8 12 12 11 8 8 9 10 10 12 13 14 16 17 18 19 22 24 26 29
2 4 14 14 13 11 7 7 9 13 12 12 9 13 18 22 20 21 17 11 23 22 18 16 15 12 10 7 7 10 9 11 12 15 15 16 17 18 18 20 21 21 20 21 23 26 27 28 31
8 10 13 9 7 6 8 9 9 8 8 8 10 14 20 24 22 21 19 21 23 18 20 17 15 13 11 12 13 13 14 16 18 19 22 24 26 28 29 29 31 30 28 24 24 29 29 35 35
7 12 10 3 5 5 7 11 11 13 16 14 14 16 23 24 25 20 17 21 22 24 27 27 18 14 21 20 18 18 22 22 26 30 30 31 33 34 35 37 38 36 35 33 34 35 36 36 33
9 8 8 5 4 3 5 8 11 12 16 15 16 19 18 23 25 17 18 20 20 20 20 20 21 23 24 25 31 27 30 33 33 34 34 36 40 40 42 41 43 44 42 39 38 39 41 41 37
8 5 7 6 5 7 6 11 17 15 14 15 22 23 28 26 16 12 16 18 22 19 12 13 19 24 28 32 33 36 36 41 41 39 42 46 46 43 44 43 45 44 46 48 47 48 49 44 43
8 8 8 7 7 7 9 14 18 11 13 17 23 30 28 22 14 11 15 21 25 29 30 30 26 27 29 30 34 39 42 43 46 45 47 50 49 44 41 37 34 31 53 57 52 57 57 56 44
15 12 11 12 10 9 10 13 17 17 18 23 28 27 19 16 14 17 12 11 17 26 32 32 32 34 36 39 41 46 49 49 51 47 46 50 44 43 41 35 33 29 32 30 46 49 59 48 52
18 14 9 12 13 12 15 20 20 20 22 28 31 22 15 14 12 14 14 7 16 25 30 34 38 40 41 44 46 49 51 52 53 53 51 51 47 45 43 36 35 32 26 25 37 26 57 40 29
14 17 17 20 18 20 22 24 25 24 24 25 20 30 14 16 20 23 21 22 26 32 38 39 40 45 46 48 49 51 52 53 52 51 51 50 50 48 43 43 37 33 34 24 22 22 18 21 24
8 11 13 17 18 21 21 18 15 18 19 21 24 22 17 20 22 24 21 27 29 37 42 43 45 50 49 51 52 50 49 50 51 51 48 47 44 44 43 43 40 37 32 31 21 22 24 30 26
7 9 10 12 13 16 16 18 18 21 22 22 18 19 23 27 29 27 31 32 36 40 45 46 43 45 46 47 48 51 50 48 48 49 49 50 49 45 42 40 41 39 35 34 30 27 29 31 32
8 8 8 11 12 15 19 25 23 25 25 21 22 25 29 29 23 29 31 32 34 35 39 41 41 44 48 49 52 52 54 55 53 51 49 49 50 49 45 42 40 38 37 37 36 33 30 32 33
7 8 10 11 13 16 18 22 23 24 24 24 25 26 26 24 28 31 31 32 29 33 35 37 38 40 41 43 46 49 52 54 55 53 54 53 52 53 50 46 43 41 39 37 36 36 33 33 34
6 7 8 9 12 16 19 22 23 24 27 29 27 28 29 28 27 31 32 31 33 34 36 39 41 43 45 46 48 51 53 54 56 58 57 55 54 52 51 49 45 41 39 38 35 35 35 35 36
7 11 12 15 16 20 24 26 25 25 26 28 31 32 29 30 35 38 41 45 46 46 45 43 43 45 47 50 52 55 58 60 62 62 61 58 55 53 51 50 48 46 42 38 36 35 36 35 34
9 11 14 17 19 21 25 26 30 31 32 32 32 32 36 38 40 44 49 52 54 55 56 55 55 54 54 53 55 57 58 57 53 49 49 48 48 46 43 42 42 42 37 34 34 35 34 35 34
12 15 17 20 23 24 26 27 28 33 32 31 33 35 38 42 46 51 54 57 59 58 59 60 60 60 60 60 59 51 45 46 49 49 50 49 46 41 40 37 33 32 31 30 32 30 31 33 35
13 15 18 21 23 24 27 28 31 30 30 32 34 36 40 44 49 52 55 57 58 59 59 59 60 62 61 59 53 45 45 48 47 50 47 45 43 39 42 38 37 34 30 32 30 30 30 33 37
Wind_Direction
178 153 132 139 144 133 129 97 60 22 26 37 20 11 4 356 353 352 348 347 354 343 330 321 302 277 267 261 254 247 247 252 259 266 269 266 268 278 287 296 298 300 301 293 277 265 259 260 259
195 147 142 136 136 102 88 109 45 10 24 31 19 7 357 353 345 344 343 349 3 356 347 325 314 285 269 260 250 245 249 264 273 278 280 279 277 276 281 286 290 293 291 274 255 245 250 254 261
351 143 156 160 143 149 120 124 34 22 24 28 22 4 354 338 341 341 344 354 14 16 9 354 330 314 304 268 246 254 278 293 293 288 284 282 277 275 276 280 280 278 273 254 242 240 244 249 257
293 142 146 148 165 190 170 245 12 25 29 27 22 3 340 336 346 346 358 357 11 35 19 9 0 348 6 12 330 313 314 305 293 280 272 274 273 275 275 275 272 271 264 245 235 237 238 244 262
170 145 148 177 192 212 230 177 45 9 15 16 6 350 341 338 347 355 353 350 2 13 29 15 5 347 353 11 345 329 320 304 289 281 273 268 269 271 277 277 272 268 260 245 239 242 243 254 268
158 163 173 191 183 193 239 293 288 6 8 6 352 349 340 340 342 351 348 347 3 15 23 26 11 356 301 241 221 267 280 276 278 273 271 271 274 273 272 269 267 259 251 241 237 238 239 246 258
193 167 169 180 194 210 243 255 36 37 0 354 341 341 340 343 343 346 0 1 360 22 30 29 29 24 358 304 260 247 259 272 274 273 274 277 274 270 266 263 259 255 249 242 238 237 242 254 265
205 197 192 207 215 214 271 270 34 320 349 332 333 341 342 344 340 348 4 353 6 13 26 25 33 40 39 33 353 316 287 280 273 273 271 267 263 262 261 261 263 262 256 249 245 248 255 264 265
270 263 236 225 231 261 288 273 261 299 314 313 318 331 334 335 340 344 356 350 3 28 27 26 32 35 36 29 18 23 18 339 309 294 284 273 268 265 257 257 258 250 244 240 244 250 256 257 259
311 288 274 246 257 272 258 262 288 254 262 294 317 323 331 343 329 328 340 324 336 20 37 37 56 57 47 41 37 21 2 341 326 322 310 303 298 287 278 268 254 248 243 243 242 241 242 246 249
308 269 310 277 273 277 273 262 251 261 269 299 299 320 329 325 323 333 347 326 2 1 12 21 30 62 59 38 28 22 7 352 344 338 345 348 331 312 291 277 263 252 245 240 239 241 242 244 246
286 340 307 290 286 273 262 262 260 267 279 291 297 323 347 331 320 324 346 3 25 15 359 354 352 0 7 10 10 4 352 346 343 336 337 328 320 308 301 293 273 266 259 256 254 253 254 254 255
200 221 249 270 267 263 275 298 281 279 286 294 317 340 340 341 340 330 327 353 7 358 340 338 334 342 338 329 324 323 319 304 315 315 306 299 296 295 289 282 278 268 262 255 265 263 258 263 267
209 221 221 218 248 346 355 335 350 9 6 350 334 338 330 339 337 338 331 341 335 340 337 313 307 310 302 293 285 286 279 269 264 257 249 244 243 244 247 251 253 253 252 256 260 261 263 262 262
195 193 216 201 309 350 349 359 346 339 339 345 333 312 339 329 333 334 327 331 334 327 324 315 300 293 289 281 277 269 274 264 252 249 255 260 258 255 251 250 255 258 256 263 261 260 262 260 271
221 212 203 202 252 304 336 6 328 317 329 332 334 330 321 322 325 324 327 337 325 313 317 311 297 294 291 288 290 283 276 277 274 273 274 266 264 258 260 260 259 261 264 262 264 265 262 269 269
278 191 216 218 207 221 292 335 326 314 313 321 330 332 329 330 320 330 345 340 333 307 252 265 291 286 289 289 290 290 290 285 281 274 271 269 273 267 265 259 254 258 265 266 267 265 257 256 260
267 235 223 245 229 256 311 334 340 344 331 331 332 323 322 327 310 330 346 339 338 339 333 327 306 294 295 296 293 288 288 293 303 305 276 304 293 310 325 284 303 299 307 257 260 260 262 251 260
269 263 257 240 263 273 297 322 322 331 329 326 328 327 318 324 310 297 306 343 342 332 320 313 305 297 293 290 289 291 292 291 295 294 297 300 302 300 305 311 306 312 313 324 306 280 256 258 260
267 241 251 249 249 263 287 305 316 311 316 318 319 310 311 319 315 306 300 296 311 309 306 304 303 298 295 294 294 292 292 295 297 299 301 300 305 306 307 306 304 303 315 307 311 253 241 275 251
252 257 254 266 271 279 285 291 302 307 300 305 309 300 313 295 302 310 308 305 293 297 306 300 300 299 296 296 297 297 298 299 300 299 299 301 303 304 305 304 306 307 305 307 307 312 297 288 272
309 305 280 278 293 288 287 293 291 292 292 297 300 303 282 310 307 318 298 303 283 289 299 301 298 297 300 302 301 300 299 300 302 303 304 302 300 302 304 305 306 300 300 300 288 280 269 264 261
319 292 305 302 313 306 305 301 298 299 300 306 297 291 296 305 305 310 298 303 301 300 302 301 304 305 303 301 303 305 306 305 305 306 306 306 306 305 303 302 303 302 299 293 289 276 269 270 272
336 315 312 315 302 289 287 289 292 292 295 303 300 302 306 303 311 302 303 305 307 312 313 313 311 309 309 309 310 310 310 311 309 307 305 304 304 303 302 300 297 295 294 291 287 284 280 276 274
336 315 310 302 304 299 293 296 298 300 302 312 316 314 311 310 313 309 311 310 316 321 317 317 311 308 306 307 307 307 307 308 308 309 308 307 305 303 302 299 295 293 290 287 286 284 278 275 273
312 321 301 306 302 306 315 320 325 323 321 323 321 316 316 316 311 310 314 322 327 324 320 316 311 308 308 310 311 310 308 306 304 304 305 304 302 300 298 297 295 290 286 281 276 272 272 269 268
335 324 313 318 325 324 325 324 326 324 324 320 315 318 321 318 323 326 330 331 329 328 326 322 318 316 315 315 314 313 311 310 309 307 306 303 299 294 291 289 287 286 282 277 273 270 268 267 264
318 315 313 312 318 321 325 327 327 325 322 322 324 327 329 328 327 329 330 328 329 330 328 325 323 322 322 319 316 314 311 311 312 311 309 309 309 309 302 294 288 281 274 267 264 260 262 264 261
304 305 316 320 322 324 323 325 324 324 324 323 327 328 327 328 329 329 328 328 328 327 325 324 324 322 321 320 319 319 317 316 315 314 313 308 306 305 310 308 299 282 275 268 258 255 253 254 256
304 309 317 315 317 317 318 327 326 324 323 325 326 325 326 326 326 326 324 324 323 323 322 322 320 317 317 316 318 318 316 315 315 313 317 314 310 305 306 309 306 297 287 273 265 256 253 269 252
Height
5878 5879 5881 5883 5886 5885 5885 5885 5884 5884 5884 5880 5879 5878 5877 5875 5875 5874 5871 5867 5862 5860 5857 5854 5853 5854 5854 5855 5855 5856 5857 5859 5861 5862 5863 5864 5864 5864 5865 5865 5866 5866 5866 5866 5866 5865 5866 5867 5869
5878 5880 5883 5885 5886 5886 5887 5886 5885 5884 5883 5881 5881 5879 5878 5876 5876 5875 5871 5866 5862 5861 5858 5856 5853 5853 5853 5853 5854 5855 5855 5856 5857 5860 5861 5862 5862 5862 5862 5862 5862 5862 5862 5862 5862 5862 5863 5864 5865
5879 5880 5883 5884 5885 5884 5885 5885 5885 5885 5883 5880 5881 5880 5878 5877 5877 5874 5870 5867 5861 5859 5857 5856 5855 5852 5850 5852 5853 5854 5855 5855 5855 5855 5856 5857 5858 5858 5858 5858 5858 5857 5857 5857 5858 5859 5860 5861 5862
5878 5880 5884 5884 5884 5883 5885 5885 5886 5884 5883 5881 5880 5880 5880 5877 5875 5872 5869 5866 5862 5858 5858 5856 5855 5854 5851 5850 5851 5853 5854 5854 5854 5854 5852 5852 5853 5854 5855 5855 5855 5854 5854 5854 5855 5856 5856 5858 5860
5879 5881 5883 5883 5884 5885 5885 5885 5885 5884 5883 5881 5881 5881 5881 5877 5874 5871 5867 5864 5862 5859 5856 5855 5855 5854 5853 5851 5851 5851 5851 5851 5851 5851 5851 5850 5850 5851 5851 5851 5851 5850 5850 5851 5853 5854 5856 5858 5858
5880 5882 5883 5884 5885 5885 5884 5885 5885 5883 5883 5882 5881 5882 5881 5878 5875 5871 5868 5864 5861 5858 5855 5853 5854 5854 5852 5851 5850 5851 5851 5850 5850 5849 5849 5849 5849 5848 5847 5847 5846 5845 5846 5847 5848 5850 5851 5852 5852
5881 5882 5883 5883 5884 5884 5884 5883 5884 5882 5882 5882 5883 5882 5881 5878 5875 5872 5869 5866 5861 5857 5855 5854 5854 5853 5852 5852 5851 5850 5849 5849 5849 5849 5848 5848 5847 5846 5845 5843 5843 5843 5844 5845 5846 5847 5849 5850 5850
5881 5882 5882 5883 5884 5885 5884 5883 5882 5882 5882 5883 5883 5882 5881 5879 5876 5872 5869 5866 5863 5859 5857 5856 5854 5853 5852 5852 5852 5849 5848 5848 5847 5847 5846 5845 5844 5843 5843 5842 5842 5843 5844 5844 5845 5847 5847 5847 5847
5881 5882 5882 5883 5884 5885 5884 5882 5881 5882 5882 5883 5882 5883 5882 5879 5875 5873 5868 5863 5860 5858 5857 5856 5855 5855 5854 5853 5852 5850 5848 5848 5847 5846 5845 5845 5844 5843 5842 5842 5841 5841 5841 5842 5842 5842 5843 5843 5842
5881 5881 5882 5881 5882 5883 5883 5879 5879 5879 5880 5881 5882 5883 5883 5879 5873 5871 5869 5865 5862 5860 5857 5854 5853 5854 5854 5854 5852 5852 5851 5849 5848 5847 5846 5845 5845 5844 5843 5842 5841 5840 5839 5838 5838 5838 5837 5837 5836
5882 5881 5882 5881 5882 5882 5882 5879 5879 5879 5881 5881 5882 5884 5880 5875 5872 5870 5868 5866 5864 5862 5858 5856 5854 5852 5851 5852 5852 5852 5851 5849 5848 5847 5846 5845 5844 5843 5842 5841 5839 5838 5836 5835 5834 5834 5833 5832 5830
5882 5882 5883 5881 5881 5881 5882 5880 5878 5879 5880 5881 5881 5882 5878 5876 5873 5871 5869 5869 5864 5860 5858 5856 5855 5852 5850 5849 5849 5849 5849 5849 5849 5847 5846 5845 5843 5841 5840 5839 5837 5835 5833 5832 5831 5829 5828 5827 5826
5883 5883 5880 5880 5879 5880 5880 5879 5878 5877 5878 5880 5880 5878 5876 5874 5874 5872 5870 5865 5862 5860 5858 5855 5853 5851 5849 5847 5847 5847 5846 5845 5846 5846 5845 5844 5842 5839 5837 5834 5831 5827 5825 5824 5823 5823 5822 5822 5821
5882 5881 5879 5880 5879 5880 5879 5879 5878 5878 5879 5879 5879 5876 5873 5870 5870 5868 5866 5862 5861 5859 5856 5854 5851 5848 5844 5842 5841 5842 5842 5839 5835 5831 5825 5820 5818 5817 5816 5816 5814 5813 5813 5815 5816 5815 5812 5812 5812
5882 5881 5880 5880 5880 5881 5880 5879 5877 5877 5877 5876 5876 5874 5870 5866 5863 5863 5861 5861 5858 5854 5852 5848 5845 5844 5842 5837 5834 5832 5829 5824 5822 5819 5819 5817 5815 5812 5810 5810 5811 5811 5810 5812 5810 5806 5806 5804 5803
5882 5882 5881 5881 5880 5880 5880 5879 5878 5877 5875 5873 5872 5871 5869 5866 5862 5859 5859 5856 5851 5846 5846 5845 5843 5841 5838 5836 5825 5822 5822 5818 5817 5815 5815 5810 5805 5803 5803 5803 5803 5803 5803 5803 5803 5801 5797 5796 5794
5881 5882 5881 5882 5880 5879 5879 5877 5876 5874 5873 5871 5869 5865 5863 5861 5856 5855 5853 5850 5845 5840 5838 5836 5838 5836 5834 5829 5826 5821 5816 5810 5808 5806 5803 5799 5796 5787 5780 5784 5787 5791 5793 5794 5793 5789 5785 5784 5786
5880 5881 5880 5879 5880 5878 5877 5876 5873 5872 5871 5870 5869 5865 5861 5857 5854 5851 5849 5847 5844 5838 5835 5830 5832 5831 5828 5825 5819 5814 5813 5810 5806 5801 5789 5795 5786 5783 5780 5778 5775 5778 5776 5773 5776 5773 5772 5771 5774
5880 5879 5880 5878 5878 5878 5876 5875 5875 5872 5871 5869 5868 5865 5863 5858 5854 5852 5850 5845 5842 5839 5835 5832 5827 5822 5818 5815 5812 5806 5803 5801 5796 5795 5791 5785 5787 5783 5779 5776 5776 5773 5771 5765 5761 5748 5754 5757 5760
5878 5879 5877 5876 5876 5877 5876 5875 5875 5874 5871 5869 5867 5865 5864 5860 5856 5852 5847 5841 5839 5836 5831 5826 5822 5817 5811 5806 5803 5799 5793 5790 5786 5781 5778 5778 5772 5772 5767 5769 5768 5765 5758 5762 5753 5738 5744 5746 5748
5876 5876 5876 5874 5875 5874 5874 5873 5872 5872 5871 5870 5867 5863 5862 5860 5855 5850 5847 5840 5834 5828 5825 5819 5813 5807 5801 5795 5791 5786 5781 5777 5773 5770 5767 5764 5761 5759 5757 5753 5754 5752 5749 5750 5745 5743 5743 5745 5745
5876 5875 5875 5873 5873 5872 5871 5872 5872 5870 5869 5868 5866 5862 5861 5859 5853 5849 5844 5838 5829 5823 5815 5812 5806 5800 5792 5783 5776 5772 5769 5766 5762 5758 5755 5753 5753 5747 5743 5741 5741 5742 5740 5738 5738 5737 5737 5738 5736
5876 5875 5873 5873 5872 5870 5868 5868 5869 5867 5865 5864 5861 5859 5857 5854 5849 5844 5836 5828 5821 5815 5810 5806 5798 5790 5783 5777 5769 5761 5757 5754 5751 5746 5742 5739 5736 5736 5735 5732 5727 5727 5727 5726 5727 5728 5728 5726 5723
5875 5873 5872 5871 5870 5869 5867 5866 5866 5864 5861 5860 5858 5856 5851 5847 5841 5835 5827 5822 5817 5812 5805 5797 5790 5780 5772 5766 5759 5752 5744 5740 5738 5735 5731 5726 5722 5720 5718 5717 5717 5716 5716 5715 5714 5713 5713 5712 5712
5874 5872 5871 5871 5868 5867 5865 5862 5860 5858 5856 5855 5853 5848 5843 5837 5831 5825 5820 5817 5813 5805 5798 5789 5782 5775 5768 5760 5751 5745 5740 5732 5725 5721 5717 5713 5710 5705 5703 5704 5704 5704 5703 5702 5702 5701 5701 5700 5699
5872 5871 5870 5869 5867 5865 5861 5858 5856 5852 5849 5847 5842 5837 5832 5827 5821 5818 5814 5809 5804 5799 5792 5783 5774 5765 5757 5751 5745 5737 5729 5722 5715 5708 5704 5700 5696 5693 5691 5687 5686 5687 5688 5688 5688 5689 5689 5689 5688
5870 5870 5868 5866 5864 5861 5857 5854 5851 5849 5845 5839 5833 5827 5822 5818 5812 5807 5800 5793 5788 5784 5779 5773 5766 5758 5750 5742 5734 5726 5717 5709 5700 5693 5688 5683 5679 5677 5676 5674 5672 5670 5670 5671 5672 5673 5674 5675 5675
5869 5869 5868 5864 5862 5858 5854 5850 5844 5840 5836 5830 5824 5819 5813 5808 5803 5795 5788 5782 5776 5770 5762 5755 5750 5744 5737 5730 5722 5714 5706 5697 5689 5681 5674 5669 5664 5658 5657 5657 5656 5655 5654 5655 5656 5657 5658 5659 5660
5868 5866 5865 5861 5858 5854 5850 5848 5842 5834 5829 5824 5819 5813 5808 5801 5793 5787 5781 5774 5766 5759 5750 5743 5736 5729 5722 5715 5707 5699 5691 5684 5678 5671 5664 5657 5652 5648 5642 5640 5640 5640 5639 5640 5641 5642 5643 5644 5646
5865 5864 5861 5858 5855 5851 5847 5844 5837 5832 5826 5820 5816 5810 5804 5797 5790 5784 5776 5768 5760 5752 5744 5736 5728 5719 5711 5704 5696 5689 5682 5675 5668 5661 5654 5647 5641 5638 5634 5629 5626 5626 5626 5625 5627 5629 5630 5629 5632